TimeGMT,TemperatureF,Dew PointF,Humidity,Sea Level PressureIn,VisibilityMPH,Wind Direction,Wind SpeedMPH,Gust SpeedMPH,PrecipitationIn,Events,Conditions,WindDirDegrees,DateUTC
12:00 AM,49,48,96,30.08,0,SSE,20.7,,,Fog,Heavy Fog,160,2013-10-11 00:00:00
12:00 AM,48.2,48.2,100,30.06,0.2,SSE,20.7,-,N/A,Fog,Fog,160,2013-10-11 00:00:00
12:30 AM,48.2,48.2,100,30.06,0.2,SSE,19.6,-,N/A,Fog,Fog,160,2013-10-11 00:30:00
1:00 AM,48.2,48.2,100,30.06,0.2,SSE,21.9,-,N/A,Fog,Fog,160,2013-10-11 01:00:00
1:30 AM,48.2,48.2,100,30.06,0.2,SSE,18.4,-,N/A,Fog,Fog,160,2013-10-11 01:30:00
2:00 AM,48.2,48.2,100,30.06,0.2,SSE,18.4,-,N/A,Fog,Fog,160,2013-10-11 02:00:00
2:30 AM,48.2,48.2,100,30.06,0.2,SSE,19.6,-,N/A,Fog,Fog,160,2013-10-11 02:30:00
3:00 AM,48.2,48.2,100,30.06,0.2,SSE,20.7,-,N/A,Fog,Fog,160,2013-10-11 03:00:00
3:30 AM,48.2,48.2,100,30.06,0.2,South,19.6,-,N/A,Fog,Fog,170,2013-10-11 03:30:00
4:00 AM,48.2,48.2,100,30.04,0.3,South,20.7,-,N/A,Fog-Rain,Rain,170,2013-10-11 04:00:00
4:30 AM,48.2,48.2,100,30.04,1.9,South,20.7,-,N/A,Rain,Light Rain,170,2013-10-11 04:30:00
5:00 AM,48.2,48.2,100,30.04,1.1,South,19.6,-,N/A,,Light Drizzle,170,2013-10-11 05:00:00
5:30 AM,48.2,48.2,100,30.04,0.4,South,20.7,-,N/A,Fog,Fog,170,2013-10-11 05:30:00
6:00 AM,49,48,96,30.05,0,South,20.7,,,Fog,Heavy Fog,170,2013-10-11 06:00:00
6:00 AM,48.2,48.2,100,30.04,0.4,South,20.7,-,N/A,Fog,Fog,170,2013-10-11 06:00:00
6:30 AM,48.2,48.2,100,30.04,1.9,South,20.7,-,N/A,Fog,Light Drizzle,170,2013-10-11 06:30:00
7:00 AM,48.2,48.2,100,30.04,1.9,SSE,20.7,-,N/A,Fog,Light Drizzle,160,2013-10-11 07:00:00
7:30 AM,48.2,48.2,100,30.04,3.7,SSE,21.9,-,N/A,,Light Drizzle,160,2013-10-11 07:30:00
8:00 AM,48.2,48.2,100,30.04,5.6,SSE,23.0,34.5,N/A,,Light Drizzle,160,2013-10-11 08:00:00
8:30 AM,48.2,48.2,100,30.04,6.2,SSE,24.2,-,N/A,,Light Drizzle,160,2013-10-11 08:30:00
9:00 AM,48.2,48.2,100,30.04,6.2,SSE,24.2,-,N/A,,Mostly Cloudy,150,2013-10-11 09:00:00
9:30 AM,48.2,48.2,100,30.04,6.2,SSE,23.0,-,N/A,,Overcast,150,2013-10-11 09:30:00
10:00 AM,48.2,48.2,100,30.04,6.2,SSE,25.3,-,N/A,,Mostly Cloudy,150,2013-10-11 10:00:00
10:30 AM,48.2,46.4,93,30.06,6.2,SSE,25.3,-,N/A,,Mostly Cloudy,150,2013-10-11 10:30:00
11:00 AM,50.0,46.4,87,30.06,6.2,SSE,25.3,-,N/A,,Mostly Cloudy,150,2013-10-11 11:00:00
11:30 AM,50.0,46.4,87,30.06,6.2,SSE,25.3,-,N/A,,Mostly Cloudy,150,2013-10-11 11:30:00
12:00 PM,49,46,87,30.06,7,SSE,25.3,,,,Mist,150,2013-10-11 12:00:00
12:00 PM,50.0,46.4,87,30.06,6.2,SSE,26.5,-,N/A,,Overcast,150,2013-10-11 12:00:00
12:30 PM,50.0,48.2,94,30.06,6.2,SSE,25.3,-,N/A,,Mostly Cloudy,150,2013-10-11 12:30:00
1:00 PM,50.0,48.2,94,30.06,6.2,SE,26.5,38.0,N/A,,Mostly Cloudy,140,2013-10-11 13:00:00
1:30 PM,50.0,48.2,94,30.06,6.2,SSE,26.5,-,N/A,,Mostly Cloudy,150,2013-10-11 13:30:00
2:00 PM,50.0,48.2,94,30.06,6.2,SSE,28.8,-,N/A,,Mostly Cloudy,150,2013-10-11 14:00:00
2:30 PM,50.0,48.2,94,30.04,6.2,SSE,27.6,-,N/A,,Mostly Cloudy,150,2013-10-11 14:30:00
3:00 PM,50.0,48.2,94,30.04,6.2,SSE,29.9,43.7,N/A,,Mostly Cloudy,150,2013-10-11 15:00:00
3:30 PM,50.0,46.4,87,30.04,6.2,SSE,28.8,40.3,N/A,,Mostly Cloudy,150,2013-10-11 15:30:00
4:00 PM,50.0,46.4,87,30.04,6.2,SSE,29.9,-,N/A,,Mostly Cloudy,150,2013-10-11 16:00:00
4:30 PM,50.0,46.4,87,30.04,6.2,SSE,28.8,-,N/A,,Mostly Cloudy,150,2013-10-11 16:30:00
5:00 PM,50.0,46.4,87,30.04,6.2,SE,26.5,39.1,N/A,,Mostly Cloudy,140,2013-10-11 17:00:00
5:30 PM,50.0,46.4,87,30.04,6.2,SE,27.6,39.1,N/A,,Mostly Cloudy,140,2013-10-11 17:30:00
6:00 PM,49,45,83,30.06,9,SE,27.6,,,,Mostly Cloudy,140,2013-10-11 18:00:00
6:00 PM,50.0,46.4,87,30.04,6.2,SE,27.6,39.1,N/A,,Mostly Cloudy,140,2013-10-11 18:00:00
6:30 PM,48.2,46.4,93,30.04,6.2,SE,27.6,39.1,N/A,,Mostly Cloudy,140,2013-10-11 18:30:00
7:00 PM,48.2,46.4,93,30.06,3.7,SE,27.6,39.1,N/A,,Light Drizzle,140,2013-10-11 19:00:00
7:30 PM,48.2,46.4,93,30.04,5.6,SE,27.6,40.3,N/A,,Light Drizzle,140,2013-10-11 19:30:00
8:00 PM,48.2,46.4,93,30.04,6.2,SE,26.5,38.0,N/A,,Mostly Cloudy,140,2013-10-11 20:00:00
8:30 PM,50.0,46.4,87,30.06,6.2,SE,28.8,-,N/A,,Mostly Cloudy,140,2013-10-11 20:30:00
9:00 PM,48.2,46.4,93,30.06,6.2,SE,26.5,39.1,N/A,,Mostly Cloudy,140,2013-10-11 21:00:00
9:30 PM,50.0,46.4,87,30.06,6.2,SE,28.8,42.6,N/A,,Mostly Cloudy,140,2013-10-11 21:30:00
10:00 PM,50.0,46.4,87,30.06,6.2,SE,28.8,-,N/A,,Mostly Cloudy,140,2013-10-11 22:00:00
10:30 PM,50.0,46.4,87,30.06,6.2,SE,28.8,41.4,N/A,,Mostly Cloudy,140,2013-10-11 22:30:00
11:00 PM,48.2,46.4,93,30.06,5.6,SE,27.6,39.1,N/A,,Light Drizzle,140,2013-10-11 23:00:00
11:30 PM,48.2,46.4,93,30.09,6.2,SE,29.9,-,N/A,,Mostly Cloudy,140,2013-10-11 23:30:00